TimeCDT,TemperatureF,Dew PointF,Humidity,Sea Level PressureIn,VisibilityMPH,Wind Direction,Wind SpeedMPH,Gust SpeedMPH,PrecipitationIn,Events,Conditions,WindDirDegrees,DateUTC
12:53 AM,64.9,55.0,70,30.17,10.0,ENE,5.8,-,N/A,,Clear,60,2013-08-04 05:53:00
1:53 AM,64.0,54.0,70,30.16,10.0,ENE,6.9,-,N/A,,Clear,60,2013-08-04 06:53:00
2:53 AM,63.0,54.0,72,30.16,10.0,ENE,4.6,-,N/A,,Clear,60,2013-08-04 07:53:00
3:53 AM,63.0,54.0,72,30.17,10.0,East,3.5,-,N/A,,Clear,90,2013-08-04 08:53:00
4:53 AM,62.1,53.1,72,30.18,10.0,Calm,Calm,-,N/A,,Clear,0,2013-08-04 09:53:00
5:53 AM,57.9,53.1,84,30.16,10.0,NE,4.6,-,N/A,,Clear,50,2013-08-04 10:53:00
6:53 AM,60.1,54.0,80,30.17,10.0,ENE,3.5,-,N/A,,Clear,70,2013-08-04 11:53:00
7:53 AM,63.0,54.0,72,30.18,10.0,Calm,Calm,-,N/A,,Clear,0,2013-08-04 12:53:00
8:53 AM,66.0,57.0,73,30.17,10.0,ENE,3.5,-,N/A,,Clear,70,2013-08-04 13:53:00
9:37 AM,69.8,57.2,64,30.19,1.8,ESE,4.6,-,N/A,,Haze,110,2013-08-04 14:37:00
9:53 AM,70.0,55.9,61,30.18,8.0,ESE,6.9,-,N/A,,Clear,110,2013-08-04 14:53:00
10:53 AM,72.0,57.0,59,30.19,10.0,ESE,5.8,-,N/A,,Clear,120,2013-08-04 15:53:00
11:53 AM,75.9,57.9,54,30.17,10.0,SE,5.8,-,N/A,,Clear,140,2013-08-04 16:53:00
12:53 PM,75.9,57.9,54,30.15,10.0,SE,8.1,-,N/A,,Clear,130,2013-08-04 17:53:00
1:53 PM,78.1,57.9,50,30.14,10.0,SE,5.8,-,N/A,,Clear,130,2013-08-04 18:53:00
2:53 PM,79.0,61.0,54,30.12,10.0,ESE,5.8,-,N/A,,Clear,110,2013-08-04 19:53:00
3:53 PM,79.0,61.0,54,30.09,10.0,ESE,6.9,-,N/A,,Clear,110,2013-08-04 20:53:00
4:53 PM,79.0,61.0,54,30.06,10.0,SSE,6.9,-,N/A,,Clear,150,2013-08-04 21:53:00
5:53 PM,78.1,61.0,56,30.06,10.0,SSE,9.2,17.3,N/A,,Clear,150,2013-08-04 22:53:00
6:53 PM,75.9,60.1,58,30.06,10.0,SSE,6.9,-,N/A,,Overcast,150,2013-08-04 23:53:00
7:53 PM,75.0,62.1,64,30.06,10.0,SSE,3.5,-,N/A,,Overcast,160,2013-08-05 00:53:00
8:53 PM,73.9,62.1,66,30.06,10.0,South,4.6,-,N/A,,Overcast,180,2013-08-05 01:53:00
9:53 PM,73.0,62.1,68,30.07,10.0,South,5.8,-,N/A,,Overcast,170,2013-08-05 02:53:00
10:53 PM,72.0,62.1,71,30.07,10.0,SSE,5.8,-,N/A,,Overcast,150,2013-08-05 03:53:00
11:53 PM,71.1,62.1,73,30.06,10.0,SSE,4.6,-,N/A,,Mostly Cloudy,150,2013-08-05 04:53:00